| time (UTC) | temp F | wind direction | speed MPH | gust MPH | rain 1hr in | rain 24hr in | rain mn in | humidity % | barometer mb |
| 20260904195310 | 62 | 300 | 2.0 | 10.0 | 0.00 | 0.24 | 0.24 | 76 | 13.0 |
| 20260904194310 | 63 | 309 | 3.0 | 9.0 | 0.00 | 0.24 | 0.24 | 76 | 12.9 |
| 20260904193311 | 63 | 276 | 4.0 | 12.0 | 0.00 | 0.24 | 0.24 | 75 | 12.9 |
| 20260904192310 | 63 | 286 | 5.0 | 12.0 | 0.00 | 0.24 | 0.24 | 74 | 12.8 |
| 20260904191311 | 63 | 294 | 4.0 | 9.0 | 0.00 | 0.24 | 0.24 | 73 | 12.6 |
| 20260904184310 | 64 | 321 | 7.0 | 16.0 | 0.00 | 0.24 | 0.24 | 75 | 12.3 |
| 20260904183310 | 64 | 327 | 4.0 | 12.0 | 0.00 | 0.24 | 0.24 | 76 | 12.2 |
| 20260904181310 | 64 | 327 | 5.0 | 15.0 | 0.00 | 0.24 | 0.24 | 76 | 12.2 |
| 20260904175310 | 64 | 323 | 4.0 | 12.0 | 0.00 | 0.24 | 0.24 | 76 | 11.9 |
| 20260904174310 | 65 | 293 | 6.0 | 13.0 | 0.00 | 0.24 | 0.24 | 76 | 11.8 |
| 20260904173310 | 65 | 275 | 8.0 | 16.0 | 0.00 | 0.24 | 0.24 | 77 | 11.6 |
| 20260904172310 | 65 | 240 | 6.0 | 11.0 | 0.00 | 0.24 | 0.24 | 76 | 11.2 |
| 20260904171310 | 65 | 304 | 8.0 | 14.0 | 0.00 | 0.24 | 0.24 | 75 | 11.1 |
| 20260904165310 | 65 | 311 | 6.0 | 13.0 | 0.00 | 0.24 | 0.24 | 78 | 11.0 |
| 20260904164310 | 65 | 333 | 6.0 | 12.0 | 0.00 | 0.24 | 0.24 | 80 | 11.0 |
| 20260904163310 | 66 | 314 | 3.0 | 15.0 | 0.00 | 0.24 | 0.24 | 79 | 11.0 |
| 20260904162310 | 66 | 277 | 7.0 | 12.0 | 0.00 | 0.24 | 0.24 | 79 | 10.6 |
| 20260904161310 | 66 | 292 | 7.0 | 18.0 | 0.00 | 0.24 | 0.24 | 78 | 10.7 |
| 20260904155310 | 66 | 304 | 7.0 | 18.0 | 0.00 | 0.24 | 0.24 | 80 | 10.4 |
| 20260904154311 | 67 | 279 | 12.0 | 22.0 | 0.00 | 0.24 | 0.24 | 81 | 10.4 |
| 20260904153310 | 67 | 290 | 11.0 | 18.0 | 0.00 | 0.24 | 0.24 | 83 | 10.3 |
| 20260904152309 | 67 | 261 | 8.0 | 13.0 | 0.00 | 0.24 | 0.24 | 84 | 10.3 |
| 20260904151310 | 67 | 286 | 5.0 | 15.0 | 0.00 | 0.24 | 0.24 | 84 | 10.2 |
| 20260904144310 | 66 | 355 | 10.0 | 18.0 | 0.01 | 0.24 | 0.24 | 85 | 10.3 |
| 20260904143310 | 66 | 288 | 5.0 | 18.0 | 0.01 | 0.24 | 0.24 | 87 | 9.9 |
| 20260904142310 | 66 | 280 | 8.0 | 18.0 | 0.01 | 0.24 | 0.24 | 88 | 9.8 |
| 20260904135310 | 65 | 355 | 9.0 | 15.0 | 0.01 | 0.24 | 0.24 | 90 | 9.6 |
| 20260904134310 | 65 | 273 | 7.0 | 14.0 | 0.01 | 0.24 | 0.24 | 90 | 9.5 |
| 20260904133311 | 65 | 312 | 8.0 | 17.0 | 0.02 | 0.24 | 0.24 | 90 | 9.4 |
| 20260904132310 | 65 | 308 | 6.0 | 14.0 | 0.03 | 0.24 | 0.24 | 92 | 9.4 |
| 20260904131311 | 65 | 290 | 7.0 | 13.0 | 0.03 | 0.24 | 0.24 | 92 | 9.4 |
| 20260904125311 | 65 | 355 | 11.0 | 23.0 | 0.05 | 0.24 | 0.24 | 90 | 9.4 |
| 20260904124310 | 65 | 304 | 6.0 | 12.0 | 0.05 | 0.23 | 0.23 | 91 | 9.3 |
| 20260904123310 | 65 | 229 | 6.0 | 12.0 | 0.06 | 0.22 | 0.22 | 92 | 9.2 |
| 20260904122310 | 65 | 268 | 5.0 | 14.0 | 0.17 | 0.20 | 0.20 | 91 | 9.1 |
| 20260904115310 | 65 | 298 | 7.0 | 13.0 | 0.17 | 0.19 | 0.19 | 91 | 9.0 |
| 20260904114310 | 65 | 327 | 6.0 | 12.0 | 0.17 | 0.18 | 0.18 | 90 | 8.9 |
| 20260904113310 | 65 | 355 | 5.0 | 12.0 | 0.15 | 0.16 | 0.16 | 88 | 8.8 |
| 20260904112310 | 66 | 304 | 4.0 | 9.0 | 0.03 | 0.04 | 0.04 | 86 | 8.8 |
| 20260904105310 | 69 | 271 | 8.0 | 22.0 | 0.02 | 0.02 | 0.02 | 88 | 8.3 |
| 20260904104310 | 69 | 262 | 11.0 | 18.0 | 0.02 | 0.02 | 0.02 | 87 | 8.4 |
| 20260904103309 | 70 | 273 | 7.0 | 15.0 | 0.01 | 0.01 | 0.01 | 87 | 8.7 |
| 20260904102310 | 70 | 278 | 12.0 | 24.0 | 0.01 | 0.01 | 0.01 | 85 | 8.5 |
| 20260904101310 | 71 | 292 | 15.0 | 27.0 | 0.00 | 0.00 | 0.00 | 83 | 8.4 |
| 20260904095310 | 72 | 243 | 11.0 | 23.0 | 0.00 | 0.00 | 0.00 | 79 | 8.5 |
| 20260904094310 | 72 | 264 | 10.0 | 21.0 | 0.00 | 0.00 | 0.00 | 80 | 8.4 |
| 20260904092311 | 71 | 273 | 10.0 | 21.0 | 0.00 | 0.00 | 0.00 | 81 | 8.4 |
| 20260904091309 | 71 | 266 | 11.0 | 19.0 | 0.00 | 0.00 | 0.00 | 81 | 8.5 |
| 20260904085310 | 70 | 279 | 10.0 | 23.0 | 0.00 | 0.00 | 0.00 | 81 | 8.4 |
| 20260904084310 | 70 | 244 | 8.0 | 21.0 | 0.00 | 0.00 | 0.00 | 83 | 8.4 |
| 20260904083310 | 70 | 246 | 14.0 | 21.0 | 0.00 | 0.00 | 0.00 | 82 | 8.4 |
| 20260904082310 | 70 | 245 | 8.0 | 24.0 | 0.00 | 0.00 | 0.00 | 82 | 8.5 |
| 20260904081310 | 70 | 285 | 13.0 | 29.0 | 0.00 | 0.00 | 0.00 | 81 | 8.4 |
| 20260904075310 | 71 | 294 | 12.0 | 24.0 | 0.00 | 0.00 | 0.00 | 80 | 8.4 |
| 20260904074310 | 71 | 270 | 13.0 | 23.0 | 0.00 | 0.00 | 0.00 | 80 | 8.6 |
| 20260904071312 | 70 | 264 | 4.0 | 17.0 | 0.00 | 0.00 | 0.00 | 82 | 8.6 |
| 20260904065310 | 70 | 248 | 10.0 | 24.0 | 0.00 | 0.00 | 0.00 | 81 | 8.9 |
| 20260904064310 | 69 | 243 | 10.0 | 20.0 | 0.00 | 0.00 | 0.00 | 81 | 8.8 |
| 20260904063310 | 69 | 134 | 11.0 | 23.0 | 0.00 | 0.00 | 0.00 | 81 | 8.9 |
| 20260904062310 | 69 | 279 | 11.0 | 20.0 | 0.00 | 0.00 | 0.00 | 82 | 9.2 |
| 20260904061310 | 69 | 239 | 10.0 | 18.0 | 0.00 | 0.00 | 0.00 | 82 | 9.3 |
| 20260904055310 | 69 | 244 | 11.0 | 20.0 | 0.00 | 0.00 | 0.00 | 82 | 9.2 |
| 20260904054310 | 69 | 225 | 9.0 | 18.0 | 0.00 | 0.00 | 0.00 | 82 | 9.4 |
| 20260904053311 | 69 | 286 | 8.0 | 17.0 | 0.00 | 0.00 | 0.00 | 82 | 9.4 |
| 20260904052310 | 69 | 277 | 8.0 | 21.0 | 0.00 | 0.00 | 0.00 | 82 | 9.4 |
| 20260904045310 | 69 | 263 | 10.0 | 24.0 | 0.00 | 0.00 | 0.00 | 82 | 10.0 |
| 20260904044310 | 69 | 248 | 6.0 | 18.0 | 0.00 | 0.00 | 0.00 | 82 | 10.2 |
| 20260904041310 | 68 | 247 | 8.0 | 16.0 | 0.00 | 0.00 | 0.00 | 82 | 10.5 |
| 20260904035311 | 68 | 246 | 5.0 | 15.0 | 0.00 | 0.00 | 0.00 | 83 | 10.6 |
| 20260904034312 | 68 | 254 | 8.0 | 15.0 | 0.00 | 0.00 | 0.00 | 83 | 10.5 |
| 20260904033310 | 68 | 274 | 10.0 | 17.0 | 0.00 | 0.00 | 0.00 | 84 | 10.6 |
| 20260904032310 | 68 | 266 | 7.0 | 13.0 | 0.00 | 0.00 | 0.00 | 84 | 10.7 |
| 20260904031311 | 68 | 271 | 5.0 | 18.0 | 0.00 | 0.00 | 0.00 | 84 | 10.7 |
| 20260904024311 | 68 | 276 | 7.0 | 15.0 | 0.00 | 0.00 | 0.00 | 85 | 11.0 |
| 20260904022310 | 68 | 234 | 8.0 | 16.0 | 0.00 | 0.00 | 0.00 | 86 | 11.2 |
| 20260904021310 | 68 | 269 | 7.0 | 14.0 | 0.00 | 0.00 | 0.00 | 86 | 11.4 |
| 20260904015311 | 68 | 266 | 8.0 | 20.0 | 0.00 | 0.00 | 0.00 | 85 | 11.6 |
| 20260904014311 | 69 | 287 | 8.0 | 17.0 | 0.00 | 0.00 | 0.00 | 85 | 11.8 |
| 20260904013310 | 69 | 292 | 5.0 | 13.0 | 0.00 | 0.00 | 0.00 | 85 | 11.9 |
| 20260904012310 | 68 | 251 | 9.0 | 18.0 | 0.00 | 0.00 | 0.00 | 85 | 12.2 |
| 20260904011310 | 68 | 251 | 7.0 | 11.0 | 0.00 | 0.00 | 0.00 | 86 | 12.3 |
| 20260904005310 | 68 | 293 | 6.0 | 14.0 | 0.00 | 0.00 | 0.00 | 86 | 12.5 |
| 20260904004310 | 68 | 294 | 9.0 | 14.0 | 0.00 | 0.00 | 0.00 | 87 | 12.7 |
| 20260904001311 | 68 | 263 | 4.0 | 9.0 | 0.00 | 0.00 | 0.00 | 88 | 12.7 |
| 20260903235310 | 68 | 263 | 3.0 | 8.0 | 0.00 | 0.00 | 0.00 | 88 | 13.2 |
| 20260903234310 | 68 | 281 | 6.0 | 13.0 | 0.00 | 0.00 | 0.00 | 88 | 13.2 |
| 20260903233310 | 68 | 290 | 5.0 | 11.0 | 0.00 | 0.00 | 0.00 | 87 | 13.2 |
| 20260903232310 | 68 | 242 | 2.0 | 9.0 | 0.00 | 0.00 | 0.00 | 87 | 13.4 |
| 20260903231309 | 68 | 261 | 4.0 | 11.0 | 0.00 | 0.00 | 0.00 | 87 | 13.6 |
| 20260903225310 | 68 | 246 | 3.0 | 12.0 | 0.00 | 0.00 | 0.00 | 86 | 13.6 |
| 20260903223309 | 67 | 221 | 6.0 | 13.0 | 0.00 | 0.00 | 0.00 | 86 | 14.1 |
| 20260903222309 | 67 | 298 | 5.0 | 11.0 | 0.00 | 0.00 | 0.00 | 87 | 14.1 |
| 20260903221310 | 67 | 252 | 4.0 | 11.0 | 0.00 | 0.00 | 0.00 | 87 | 14.0 |
| 20260903220309 | 67 | 268 | 2.0 | 6.0 | 0.00 | 0.00 | 0.00 | 87 | 14.1 |
| 20260903215311 | 67 | 227 | 2.0 | 10.0 | 0.00 | 0.00 | 0.00 | 87 | 14.2 |
| 20260903214310 | 67 | 264 | 2.0 | 12.0 | 0.00 | 0.00 | 0.00 | 87 | 14.3 |
| 20260903213310 | 67 | 264 | 2.0 | 8.0 | 0.00 | 0.00 | 0.00 | 87 | 14.4 |
| 20260903205311 | 67 | 231 | 2.0 | 6.0 | 0.00 | 0.00 | 0.00 | 85 | 15.0 |
| 20260903204310 | 67 | 252 | 1.0 | 5.0 | 0.00 | 0.00 | 0.00 | 85 | 15.1 |
| 20260903203310 | 67 | 251 | 0.0 | 4.0 | 0.00 | 0.00 | 0.00 | 84 | 14.9 |
| 20260903202310 | 67 | 240 | 2.0 | 6.0 | 0.00 | 0.00 | 0.00 | 84 | 14.9 |
| 20260903201310 | 68 | 259 | 2.0 | 6.0 | 0.00 | 0.00 | 0.00 | 83 | 14.8 |